Regional Weather Roundup
Issued by NWS Sterling, VA

Home | Current Version | Previous Version | Graphics & Text | Print | Product List | Glossary On
Versions: 1 2 3 4 5 6 7 8 9 10 11 12 13 14 15 16 17 18 19 20 21 22 23 24 25 26 27 28 29 30 31 32 33 34 35 36 37 38 39 40 41 42 43 44 45 46 47 48 49 50
000
ASUS41 KLWX 020310
RWRLWX

REGIONAL WEATHER ROUNDUP
NATIONAL WEATHER SERVICE BALTIMORE MD/WASHINGTON DC
1100 PM EDT MON JUN 01 2015

Note: "FAIR" indicates few or no clouds below 12,000 feet
with no significant weather and/or obstructions to visibility.
 TC=TEMPERATURE CELSIUS

 * =Non NWS site. Station does not report precipitation (e.g. rain,
    snow, etc.), thunder, or fog.

DCZ001-MDZ009-015-VAZ040>042-051-053>054-020400-
WASHINGTON METRO

CITY           SKY/WX    TMP DP  RH WIND       PRES   REMARKS
WASHINGTON NAT RAIN      73  66  78 S5        30.03R
DULLES         CLOUDY    70  66  87 NE5       30.02S
ANDREWS AFB    DRIZZLE   70  68  94 E7        30.02R
FT BELVOIR     LGT RAIN  70  66  88 CALM      30.02F FOG
QUANTICO       LGT RAIN  70  66  87 NE5       30.02S
COLLEGE PARK*  CLOUDY    68  68 100 CALM      30.02S
LEESBURG*      CLOUDY    70  70 100 N5        30.02F
MANASSAS*      CLOUDY    70  68  94 CALM      30.02S
GAITHERSBURG*  CLOUDY    68  64  88 E3        30.05F

$$

MDZ006>007-011-014-020400-
BALTIMORE METRO

CITY           SKY/WX    TMP DP  RH WIND       PRES   REMARKS
BWI AIRPORT    CLOUDY    68  66  94 E15       30.02S
MD SCIENCE CTR   N/A     68  66  93 MISG      30.02F
MARTIN STATE   RAIN      66  66 100 NE8G18    30.03F
ANNAPOLIS      CLOUDY    70  67  90 VRB6      30.02S
FORT MEADE*    CLOUDY    68  64  88 E8        30.03F

$$

MDZ012-015-019>023-020400-
MARYLAND EASTERN SHORE

CITY           SKY/WX    TMP DP  RH WIND       PRES   REMARKS
OCEAN CITY     CLOUDY    74  68  81 S5        30.03F
SALISBURY      HVY RAIN  69  68  96 S10       30.02S FOG
BAY BRIDGE AP*   N/A    N/A N/A N/A E7        30.03R
CAMBRIDGE*     CLOUDY    72  68  88 NE7       30.00F
EASTON*        CLOUDY    70  70 100 E7        30.07S

$$

MDZ017>025-020400-
SOUTHERN MARYLAND

CITY           SKY/WX    TMP DP  RH WIND       PRES   REMARKS
PATUXENT RIVER TSTM      68  68 100 SW5       30.04S FOG
ST INIGOES     TSTM      69  32  25 W6        30.04R
LEONARDTOWN*   CLOUDY    68  64  88 CALM      30.05F

$$

MDZ003>005-020400-
NORTH CENTRAL MARYLAND

CITY           SKY/WX    TMP DP  RH WIND       PRES   REMARKS
FREDERICK*     CLOUDY    68  68 100 N8        30.05S
HAGERSTOWN APT CLOUDY    64  60  87 N8        30.05S
WESTMINSTER*   CLOUDY    66  64  94 NE6       30.04R

$$

MDZ501>502-020400-
WESTERN MARYLAND

CITY           SKY/WX    TMP DP  RH WIND       PRES   REMARKS
OAKLAND*       FOG       50 N/A N/A N3        30.11F VSB<1/4
CUMBERLAND*    CLOUDY    61  54  77 N10       30.12F

$$

VAZ025>031-020400-
SHENANDOAH VALLEY

CITY           SKY/WX    TMP DP  RH WIND       PRES   REMARKS
WINCHESTER*    CLOUDY    64  63  94 N3        30.06R
FRONT ROYAL*   CLOUDY    64  63  94 CALM      30.05S
LURAY*         LGT RAIN  68  68 100 N3        30.05S
NEW MARKET*    CLOUDY    65  65  99 N3        30.03S
STAUNTON*      CLOUDY    69  66  91 NE7       30.07S
WAYNESBORO*    FAIR      65  64  97 CALM      30.06S

$$

WVZ021-048>050-054>055-020400-
EASTERN WEST VIRGINIA PANHANDLE

CITY           SKY/WX    TMP DP  RH WIND       PRES   REMARKS
MARTINSBURG    CLOUDY    64  60  87 N9        30.05S
PETERSBURG*    CLOUDY    67  65  92 CALM      30.06S

$$

VAZ036>039-050-020400-
CENTRAL FOOTHILLS

CITY           SKY/WX    TMP DP  RH WIND       PRES   REMARKS
CHARLOTTESVILL LGT RAIN  66  64  93 NE6       30.03F
CULPEPER*      CLOUDY    66  65  95 CALM      30.04R
ORANGE*        HVY RAIN  70  68  94 SW23G32   30.08R
GORDONSVILLE*  CLOUDY    70  66  88 W8        30.05R
WARRENTON*     MOCLDY    67  67  98 CALM      30.02S

$$

VAZ055>057-020400-
NORTH AND CENTRAL PIEDMONT

CITY           SKY/WX    TMP DP  RH WIND       PRES   REMARKS
FREDERICKSBRG* LGT RAIN  73  73 100 CALM      30.01R
STAFFORD*      LGT RAIN  69  66  88 N3        30.04S

$$

NCZ024-NYZ072-PAZ021-071-VAZ022-071-020400-
OTHER REGIONAL OBSERVATIONS

CITY           SKY/WX    TMP DP  RH WIND       PRES   REMARKS
NEW YORK CITY  RAIN      53  50  89 E13G20    30.18S FOG
PHILADELPHIA   RAIN      60  57  89 NE10      30.10F FOG
PITTSBURGH     CLOUDY    53  50  89 NE7       30.12S
ROANOKE        CLOUDY    67  66  97 CALM      30.06S
RICHMOND       TSTM      70  67  90 S10       30.04R FOG
RALEIGH        MOCLDY    70  67  90 S7        30.04R

$$

ANZ530>537-020400-
MARINE OBSERVATIONS

STATION/POSITION TIME  TEMP    WIND        PRES
                       AIR SEA DIR/SP/G
                 (UTC) (F)     (DEG/KT/KT) (MB)
THOMAS PT LIGHT  0300   71 73   90/ 14/ 16 1017.0R
BALT KEY BRIDGE  0200   70      60/  9/ 11 1016.6R
COVE POINT       0200   72     160/  6/ 11 1015.9R
LEWISETTA        0200   73 75              1016.3R
SOLOMONS ISLAND  0200      75                N/A
PINEY POINT      0200          260/ 10/ 13   N/A

$$



USA.gov is the U.S. government's official web portal to all federal, state and local government web resources and services.